Weather History for Marrakech, Morocco

Change the Weather History Date:

Saturday, December 22, 2012

  Actual Average Record
Temperature  
Mean Temperature 60 °F -  
Max Temperature 78 °F 63 °F 80 °F (2003)
Min Temperature 41 °F 42 °F 35 °F (2006)
Degree Days  
Heating Degree Days 6    
Growing Degree Days 10 (Base 50)    
Moisture  
Dew Point 40 °F    
Average Humidity 52    
Maximum Humidity 81    
Minimum Humidity 14    
Precipitation  
Precipitation 0.00 in 0.04 in - ()
Sea Level Pressure  
Sea Level Pressure 30.23 in    
Wind  
Wind Speed 3 mph ()    
Max Wind Speed 6 mph    
Max Gust Speed -    
Visibility 5.3 miles    
Events      
Averages and records for this station are not official NWS values.
T = Trace of Precipitation, MM = Missing Value Source: Averaged Metar Reports

Daily Weather History Graph

Daily Weather History Graph

Search for Another Location

Airport:

Trip Planner

Search our weather history database for the weather conditions in past years. The results will help you decide how hot, cold, wet, or windy it might be!

Date:

Astronomy

Dec. 22, 2012 Rise Set
Actual Time 7:28 AM WET 5:33 PM WET
Civil Twilight 7:01 AM WET 6:00 PM WET
Nautical Twilight 6:30 AM WET 6:30 PM WET
Astronomical Twilight 6:01 AM WET 7:00 PM WET
Moon 1:33 PM WET (12/22) 2:12 AM WET (12/22)
Length of Visible Light 10h 59m
Length of Day
10h 05m
Waxing Gibbous, 72% of the Moon is Illuminated
Dec 22
Waxing Gibbous
Dec 28
Full
Jan 5
Last Quarter
Jan 11
New
Jan 18
First Quarter

Hourly Weather History & Observations

Time (WET) Temp. Windchill Dew Point Humidity Pressure Visibility Wind Dir Wind Speed Gust Speed Precip Events Conditions
12:00 AM 48 °F - 41 °F 68% 30.30 in 6 mi East 4.6 mph - -   Clear
12:00 AM 48.2 °F - 41.0 °F 76% 30.27 in - East 5.8 mph - N/A   Clear
12:30 AM 48.2 °F - 41.0 °F 76% 30.27 in - ENE 4.6 mph - N/A   Clear
1:00 AM 46.4 °F 43.5 °F 39.2 °F 76% 30.24 in - East 5.8 mph - N/A   Clear
1:30 AM 46.4 °F 43.5 °F 41.0 °F 81% 30.24 in - East 5.8 mph - N/A   Clear
2:00 AM 46.4 °F 44.3 °F 39.2 °F 76% 30.24 in - ENE 4.6 mph - N/A   Clear
2:30 AM 46.4 °F 43.5 °F 39.2 °F 76% 30.24 in - East 5.8 mph - N/A   Clear
3:00 AM 45 °F - 38 °F 70% 30.28 in 6 mi East 3.5 mph - -   Clear
3:00 AM 44.6 °F 42.2 °F 39.2 °F 81% 30.24 in - East 4.6 mph - N/A   Clear
3:30 AM 44.6 °F 43.1 °F 39.2 °F 81% 30.24 in - East 3.5 mph - N/A   Clear
4:00 AM 44.6 °F 42.2 °F 37.4 °F 76% 30.24 in - East 4.6 mph - N/A   Clear
4:30 AM 44.6 °F 41.4 °F 37.4 °F 76% 30.24 in - East 5.8 mph - N/A   Clear
5:00 AM 44.6 °F 43.1 °F 37.4 °F 76% 30.21 in - SE 3.5 mph - N/A   Clear
5:30 AM 44.6 °F - 37.4 °F 76% 30.21 in - Calm Calm - N/A   Clear
6:00 AM 45 °F - 37 °F 66% 30.26 in 6 mi ESE 3.5 mph - -   Clear
6:00 AM 44.6 °F - 37.4 °F 76% 30.21 in - ESE 2.3 mph - N/A   Clear
6:30 AM 46.4 °F 44.3 °F 37.4 °F 71% 30.21 in - ESE 4.6 mph - N/A   Clear
7:00 AM 42.8 °F - 37.4 °F 81% 30.21 in - ESE 2.3 mph - N/A   Clear
7:30 AM 44.6 °F 43.1 °F 37.4 °F 76% 30.21 in - ENE 3.5 mph - N/A   Clear
8:00 AM 42.8 °F 40.1 °F 37.4 °F 81% 30.24 in - East 4.6 mph - N/A   Clear
8:30 AM 46.4 °F 44.3 °F 41.0 °F 81% 30.24 in - East 4.6 mph - N/A   Clear
9:00 AM 52 °F - 41 °F 57% 30.26 in 5 mi East 3.5 mph - -   Clear
9:00 AM 51.8 °F - 41.0 °F 67% 30.24 in 5.0 mi East 3.5 mph - N/A   Unknown
9:30 AM 55.4 °F - 41.0 °F 58% 30.24 in 3.7 mi Variable 2.3 mph - N/A   Unknown
10:00 AM 59.0 °F - 41.0 °F 51% 30.24 in 5.0 mi Variable 2.3 mph - N/A   Unknown
10:30 AM 64.4 °F - 41.0 °F 42% 30.27 in - Calm Calm - N/A   Clear
11:00 AM 68.0 °F - 39.2 °F 35% 30.27 in - Calm Calm - N/A   Clear
11:30 AM 69.8 °F - 41.0 °F 35% 30.27 in - Calm Calm - N/A   Clear
12:00 PM 73 °F - 42 °F 22% 30.19 in 6 mi Calm Calm - -   Clear
12:00 PM 71.6 °F - 41.0 °F 33% 30.24 in 5.6 mi Calm Calm - N/A   Unknown
12:30 PM 75.2 °F - 41.0 °F 29% 30.24 in - Calm Calm - N/A   Clear
1:00 PM 75.2 °F - 37.4 °F 25% 30.21 in - Calm Calm - N/A   Clear
1:30 PM 77.0 °F - 35.6 °F 22% 30.21 in - Calm Calm - N/A   Clear
2:00 PM 77.0 °F - 35.6 °F 22% 30.21 in - Calm Calm - N/A   Clear
2:30 PM 77.0 °F - 39.2 °F 26% 30.18 in - Calm Calm - N/A   Clear
3:00 PM 78 °F - 38 °F 14% 30.13 in 6 mi Calm Calm - -   Clear
3:00 PM 78.8 °F - 39.2 °F 24% 30.18 in - Calm Calm - N/A   Clear
3:30 PM 78.8 °F - 39.2 °F 24% 30.18 in - Calm Calm - N/A   Clear
4:00 PM 78.8 °F - 39.2 °F 24% 30.18 in - Calm Calm - N/A   Clear
4:30 PM 78.8 °F - 39.2 °F 24% 30.21 in - Calm Calm - N/A   Clear
5:00 PM 77.0 °F - 39.2 °F 26% 30.21 in - Calm Calm - N/A   Clear
5:30 PM 75.2 °F - 39.2 °F 27% 30.21 in - Calm Calm - N/A   Clear
6:00 PM 69 °F - 42 °F 26% 30.17 in 6 mi Calm Calm - -   Clear
6:00 PM 69.8 °F - 39.2 °F 33% 30.21 in 5.0 mi Calm Calm - N/A   Unknown
6:30 PM 68.0 °F - 39.2 °F 35% 30.21 in 5.0 mi Calm Calm - N/A   Unknown
7:30 PM 62.6 °F - 42.8 °F 48% 30.21 in 5.0 mi Calm Calm - N/A   Unknown
8:00 PM 62.6 °F - 41.0 °F 45% 30.24 in 5.0 mi Calm Calm - N/A   Unknown
8:30 PM 62.6 °F - 42.8 °F 48% 30.24 in 5.0 mi Calm Calm - N/A   Unknown
9:00 PM 61 °F - 41 °F 37% 30.24 in 5 mi South 4.6 mph - -   Clear
9:00 PM 60.8 °F - 41.0 °F 48% 30.24 in 5.0 mi South 4.6 mph - N/A   Unknown
9:30 PM 59.0 °F - 41.0 °F 51% 30.24 in - South 3.5 mph - N/A   Clear
10:00 PM 59.0 °F - 41.0 °F 51% 30.24 in - Calm Calm - N/A   Clear
10:30 PM 59.0 °F - 41.0 °F 51% 30.27 in - Calm Calm - N/A   Clear
11:00 PM 57.2 °F - 41.0 °F 55% 30.24 in - Calm Calm - N/A   Clear
11:30 PM 55.4 °F - 41.0 °F 58% 30.24 in - Calm Calm - N/A   Clear